This demonstration page uses our WeatherBlox Daily Observations layout. Learn more.

Left ArrowRight Arrow

36.19886, -115.1175

Hourly Observations for May 27, 2021

Temp ( °F °C ) Dew Point ( °F °C ) Humidity (%) Winds ( mph kmh ) Pressure ( in mb ) Visibility ( mi km ) Precip ( " mm )
12:53 am 00:53 Clear 75 23.9 24 -4.4 15 15 NW 7 11 29.86 1011 10 16 N/A
1:53 am 01:53 Clear 72 22.2 30 -1.1 21 21 W 3 6 29.86 1011 10 16 N/A
2:53 am 02:53 Clear 72 22.2 29 -1.7 20 20 N N/A 29.85 1011 10 16 N/A
3:53 am 03:53 Clear 70 21.1 30 -1.1 23 23 N N/A 29.87 1011 10 16 N/A
4:53 am 04:53 Clear 70 21.1 29 -1.7 22 22 W 3 6 29.87 1012 10 16 N/A
5:53 am 05:53 Sunny 69 20.6 32 undefined 25 25 W 3 6 29.90 1012 10 16 N/A
6:53 am 06:53 Sunny 74 23.3 26 -3.3 17 17 NNW 5 7 29.91 1013 10 16 N/A
7:53 am 07:53 Sunny 78 25.6 27 -2.8 15 15 NNW 6 9 29.92 1013 10 16 N/A
8:53 am 08:53 Sunny 81 27.2 27 -2.8 14 14 N 7 11 29.94 1014 10 16 N/A
9:53 am 09:53 Sunny 85 29.4 25 -3.9 11 11 VRB 3 6 29.93 1014 10 16 N/A
10:53 am 10:53 Sunny 87 30.6 24 -4.4 10 10 E 8 13 29.93 1013 10 16 N/A
11:53 am 11:53 Sunny 89 31.7 26 -3.3 10 10 N N/A 29.91 1013 10 16 N/A
12:53 pm 12:53 Sunny 93 33.9 24 -4.4 8 8 SE 8 13 29.89 1012 10 16 N/A
1:53 pm 13:53 Sunny 95 35 24 -4.4 8 8 E 8 13 29.86 1011 10 16 N/A
2:53 pm 14:53 Sunny 96 35.6 21 -6.1 6 6 N N/A 29.83 1010 10 16 N/A
3:53 pm 15:53 Sunny 95 35 22 -5.6 7 7 SSE 12 19 29.80 1009 10 16 N/A
4:53 pm 16:53 Sunny 96 35.6 22 -5.6 7 7 SSE 9 15 29.78 1009 10 16 N/A
5:53 pm 17:53 Sunny 96 35.6 22 -5.6 7 7 SE 15 24 29.77 1008 10 16 N/A
6:53 pm 18:53 Sunny 95 35 21 -6.1 7 7 E 10 17 29.76 1008 10 16 N/A
7:53 pm 19:53 Clear 92 33.3 21 -6.1 7 7 SE 13 20 29.77 1008 10 16 N/A
8:53 pm 20:53 Clear 90 32.2 20 -6.7 8 8 S 7 11 29.79 1009 10 16 N/A
9:53 pm 21:53 Clear 88 31.1 22 -5.6 9 9 S 8 13 29.80 1009 10 16 N/A
10:53 pm 22:53 Clear 85 29.4 24 -4.4 11 11 WNW 8 13 29.80 1009 10 16 N/A
11:53 pm 23:53 Clear 84 28.9 24 -4.4 11 11 SW 5 7 29.80 1009 10 16 N/A

Powered by AerisWeather